Radiation Dose at Monitoring Post of Fukushima Daini Nuclear Power Station
Date,Time,MP-1(microSv/h),MP-2(microSv/h),MP-3(microSv/h),MP-4(microSv/h),MP-5(microSv/h),MP-6(microSv/h),MP-7(microSv/h),Wind Direction,Wind Velocity(m/s),Rain
2017/10/06,00:00,0.346,0.214,0.355,0.335,0.317,0.175,0.104,south-southwest,4.5,No
2017/10/06,00:10,0.348,0.216,0.357,0.333,0.318,0.176,0.103,south-southwest,4.2,No
2017/10/06,00:20,0.347,0.215,0.356,0.335,0.316,0.177,0.104,south-southwest,3.9,No
2017/10/06,00:30,0.347,0.215,0.355,0.335,0.318,0.175,0.104,south-southwest,3.9,No
2017/10/06,00:40,0.348,0.216,0.357,0.335,0.317,0.175,0.104,south-southwest,4.2,No
2017/10/06,00:50,0.346,0.216,0.356,0.334,0.316,0.176,0.103,south-southwest,4.2,No
2017/10/06,01:00,0.347,0.216,0.354,0.335,0.317,0.175,0.104,south-southwest,3.7,No
2017/10/06,01:10,0.347,0.215,0.357,0.334,0.316,0.176,0.102,south-southwest,3.3,No
2017/10/06,01:20,0.347,0.215,0.355,0.335,0.318,0.177,0.103,south-southwest,3.7,No
2017/10/06,01:30,0.348,0.215,0.357,0.334,0.318,0.176,0.104,south-southwest,2.8,No
2017/10/06,01:40,0.347,0.215,0.356,0.335,0.315,0.176,0.103,south-southwest,2.5,No
2017/10/06,01:50,0.347,0.215,0.355,0.334,0.318,0.175,0.102,south-southwest,2.3,No
2017/10/06,02:00,0.347,0.216,0.357,0.334,0.317,0.176,0.103,southwest,1.7,No
2017/10/06,02:10,0.346,0.216,0.354,0.334,0.319,0.175,0.103,south-southwest,1.7,No
2017/10/06,02:20,0.349,0.216,0.356,0.333,0.317,0.176,0.103,southwest,2.5,No
2017/10/06,02:30,0.346,0.215,0.356,0.333,0.316,0.175,0.104,southwest,2.8,No
2017/10/06,02:40,0.345,0.216,0.357,0.334,0.318,0.175,0.103,southwest,2.8,No
2017/10/06,02:50,0.349,0.216,0.355,0.335,0.316,0.175,0.104,southwest,2.2,No
2017/10/06,03:00,0.346,0.216,0.356,0.336,0.318,0.176,0.103,southwest,2.1,No
2017/10/06,03:10,0.348,0.215,0.355,0.334,0.318,0.174,0.103,southwest,3.2,No
2017/10/06,03:20,0.347,0.215,0.357,0.334,0.317,0.176,0.103,south-southwest,2.6,No
2017/10/06,03:30,0.347,0.216,0.356,0.335,0.319,0.176,0.104,south-southwest,3.3,No
2017/10/06,03:40,0.347,0.215,0.357,0.334,0.317,0.176,0.104,south-southwest,3.5,No
2017/10/06,03:50,0.345,0.216,0.357,0.334,0.318,0.175,0.103,south-southwest,2.7,No
2017/10/06,04:00,0.348,0.215,0.355,0.335,0.317,0.175,0.103,south-southwest,3.4,No
2017/10/06,04:10,0.347,0.216,0.356,0.332,0.316,0.175,0.104,south-southwest,3.1,No
2017/10/06,04:20,0.347,0.215,0.356,0.336,0.318,0.174,0.103,southwest,3.2,No
2017/10/06,04:30,0.347,0.215,0.356,0.335,0.317,0.175,0.103,south-southwest,2.9,No
2017/10/06,04:40,0.345,0.216,0.357,0.332,0.319,0.176,0.104,southwest,2.1,No
2017/10/06,04:50,0.348,0.215,0.357,0.336,0.316,0.175,0.103,southwest,1.7,No
2017/10/06,05:00,0.347,0.216,0.355,0.334,0.316,0.176,0.103,south-southwest,2.0,No
2017/10/06,05:10,0.345,0.215,0.357,0.334,0.318,0.176,0.104,southwest,2.2,No
2017/10/06,05:20,0.348,0.216,0.356,0.336,0.316,0.174,0.103,southwest,2.4,No
2017/10/06,05:30,0.346,0.215,0.356,0.333,0.319,0.175,0.103,south-southwest,3.1,No
2017/10/06,05:40,0.348,0.215,0.357,0.334,0.315,0.175,0.103,south-southwest,3.4,No
2017/10/06,05:50,0.347,0.215,0.356,0.334,0.317,0.176,0.103,south-southwest,2.8,No
2017/10/06,06:00,0.347,0.215,0.357,0.333,0.318,0.174,0.103,south-southwest,2.4,No
2017/10/06,06:10,0.348,0.215,0.354,0.335,0.316,0.175,0.103,south-southwest,3.4,No
2017/10/06,06:20,0.346,0.216,0.356,0.333,0.318,0.175,0.104,south-southwest,3.7,No
2017/10/06,06:30,0.348,0.216,0.356,0.334,0.316,0.175,0.104,south-southwest,3.3,No
2017/10/06,06:40,0.347,0.216,0.355,0.335,0.318,0.175,0.104,south-southwest,4.2,No
2017/10/06,06:50,0.347,0.214,0.356,0.333,0.315,0.175,0.104,south-southwest,3.4,No
2017/10/06,07:00,0.348,0.214,0.356,0.335,0.318,0.175,0.104,south-southwest,3.8,No
2017/10/06,07:10,0.346,0.216,0.355,0.333,0.317,0.175,0.104,south-southwest,4.5,No
2017/10/06,07:20,0.348,0.215,0.356,0.334,0.316,0.174,0.104,southwest,3.4,No
2017/10/06,07:30,0.346,0.215,0.354,0.333,0.315,0.176,0.103,south-southwest,2.7,No
2017/10/06,07:40,0.348,0.215,0.356,0.334,0.316,0.175,0.103,south-southwest,3.3,No
2017/10/06,07:50,0.345,0.216,0.355,0.333,0.317,0.176,0.104,south-southwest,3.1,No
2017/10/06,08:00,0.348,0.216,0.357,0.332,0.319,0.174,0.103,southwest,1.9,No
2017/10/06,08:10,0.346,0.215,0.355,0.334,0.315,0.175,0.103,southwest,2.6,No
2017/10/06,08:20,0.347,0.216,0.356,0.333,0.317,0.175,0.103,south-southwest,1.9,No
2017/10/06,08:30,0.346,0.216,0.355,0.335,0.315,0.176,0.104,south,1.4,No
2017/10/06,08:40,0.348,0.216,0.357,0.333,0.318,0.174,0.104,-,CALM,No
2017/10/06,08:50,0.345,0.215,0.353,0.333,0.315,0.175,0.102,south-southwest,1.2,No
2017/10/06,09:00,0.348,0.214,0.358,0.334,0.318,0.174,0.103,south,1.4,No
2017/10/06,09:10,0.345,0.216,0.351,0.331,0.317,0.175,0.104,south,1.6,No
2017/10/06,09:20,0.346,0.215,0.355,0.335,0.315,0.175,0.102,south-southeast,1.6,No
2017/10/06,09:30,0.347,0.216,0.353,0.331,0.319,0.176,0.102,south-southeast,1.9,No
2017/10/06,09:40,0.344,0.215,0.356,0.332,0.317,0.176,0.100,southeast,1.1,No
2017/10/06,09:50,0.348,0.215,0.355,0.334,0.317,0.174,0.102,southeast,1.4,No
2017/10/06,10:00,0.345,0.216,0.355,0.331,0.320,0.176,0.101,south-southeast,1.4,No
2017/10/06,10:10,0.344,0.214,0.356,0.334,0.315,0.175,0.101,south-southeast,1.4,No
2017/10/06,10:20,0.349,0.215,0.355,0.334,0.317,0.176,0.102,south,1.4,No
2017/10/06,10:30,0.344,0.215,0.356,0.331,0.317,0.176,0.103,south,0.9,No
2017/10/06,10:40,0.348,0.215,0.354,0.336,0.314,0.175,0.102,south,1.4,No
2017/10/06,10:50,0.347,0.217,0.359,0.333,0.319,0.176,0.103,south,1.1,No
2017/10/06,11:00,0.345,0.215,0.355,0.333,0.317,0.175,0.103,south-southeast,0.6,No
2017/10/06,11:10,0.347,0.215,0.357,0.334,0.315,0.175,0.102,-,CALM,No
2017/10/06,11:20,0.346,0.216,0.355,0.333,0.321,0.176,0.103,south-southwest,1.0,No
2017/10/06,11:30,0.348,0.215,0.355,0.335,0.314,0.175,0.103,southwest,2.0,No
2017/10/06,11:40,0.348,0.216,0.355,0.332,0.318,0.175,0.104,south-southwest,1.2,No
2017/10/06,11:50,0.347,0.215,0.356,0.335,0.318,0.176,0.103,south-southwest,1.4,No
2017/10/06,12:00,0.348,0.217,0.357,0.332,0.316,0.174,0.102,south-southwest,1.4,No
2017/10/06,12:10,0.345,0.216,0.354,0.335,0.319,0.176,0.103,southwest,2.6,No
2017/10/06,12:20,0.350,0.213,0.356,0.334,0.316,0.174,0.103,south-southwest,2.2,No
2017/10/06,12:30,0.347,0.215,0.353,0.333,0.316,0.176,0.102,south-southwest,1.7,No
2017/10/06,12:40,0.345,0.214,0.358,0.335,0.319,0.176,0.103,southwest,1.6,No
2017/10/06,12:50,0.349,0.215,0.353,0.332,0.316,0.175,0.103,southwest,1.0,No
2017/10/06,13:00,0.346,0.215,0.353,0.334,0.314,0.174,0.102,south,1.2,No
2017/10/06,13:10,0.346,0.214,0.356,0.335,0.319,0.175,0.103,southwest,1.4,No
2017/10/06,13:20,0.348,0.215,0.352,0.331,0.316,0.174,0.101,south-southwest,1.7,No
2017/10/06,13:30,0.343,0.216,0.357,0.336,0.317,0.175,0.102,south-southeast,1.1,No
2017/10/06,13:40,0.348,0.214,0.355,0.334,0.318,0.176,0.103,southwest,0.9,No
2017/10/06,13:50,0.347,0.216,0.356,0.334,0.316,0.175,0.102,south-southeast,0.7,No
2017/10/06,14:00,0.347,0.214,0.357,0.336,0.317,0.175,0.102,-,CALM,No
2017/10/06,14:10,0.348,0.216,0.354,0.333,0.318,0.175,0.102,-,CALM,No
2017/10/06,14:20,0.345,0.217,0.357,0.335,0.316,0.176,0.104,-,CALM,No
2017/10/06,14:30,0.348,0.215,0.354,0.334,0.320,0.176,0.103,south,0.6,No
2017/10/06,14:40,0.345,0.217,0.358,0.331,0.316,0.175,0.103,-,CALM,No
2017/10/06,14:50,0.347,0.215,0.355,0.330,0.319,0.177,0.103,southwest,1.1,No
2017/10/06,15:00,0.347,0.216,0.358,0.326,0.318,0.175,0.102,southwest,0.6,No
2017/10/06,15:10,0.346,0.216,0.356,0.336,0.315,0.174,0.103,southwest,0.6,No
2017/10/06,15:20,0.349,0.215,0.354,0.333,0.318,0.175,0.103,-,CALM,No
2017/10/06,15:30,0.345,0.216,0.356,0.336,0.316,0.175,0.103,-,CALM,No
2017/10/06,15:40,0.348,0.215,0.355,0.335,0.317,0.176,0.103,-,CALM,No
2017/10/06,15:50,0.346,0.217,0.358,0.334,0.318,0.175,0.103,south-southwest,1.1,No
2017/10/06,16:00,0.347,0.215,0.354,0.336,0.315,0.176,0.103,-,CALM,No
2017/10/06,16:10,0.348,0.216,0.357,0.333,0.319,0.175,0.103,-,CALM,No
2017/10/06,16:20,0.345,0.215,0.355,0.337,0.317,0.175,0.103,-,CALM,No
2017/10/06,16:30,0.349,0.216,0.358,0.335,0.319,0.176,0.103,-,CALM,No
2017/10/06,16:40,0.345,0.215,0.354,0.337,0.318,0.175,0.102,-,CALM,No
2017/10/06,16:50,0.347,0.217,0.357,0.334,0.317,0.176,0.104,-,CALM,No
2017/10/06,17:00,0.347,0.214,0.355,0.337,0.319,0.175,0.103,-,CALM,No
2017/10/06,17:10,0.347,0.217,0.358,0.336,0.316,0.177,0.104,-,CALM,No
2017/10/06,17:20,0.348,0.215,0.355,0.336,0.319,0.174,0.103,north-northeast,0.8,No
2017/10/06,17:30,0.347,0.218,0.359,0.336,0.316,0.176,0.103,west-northwest,1.1,No
2017/10/06,17:40,0.349,0.216,0.355,0.336,0.319,0.175,0.104,west,0.8,No
2017/10/06,17:50,0.347,0.216,0.357,0.335,0.316,0.176,0.104,west,1.0,No
2017/10/06,18:00,0.348,0.216,0.357,0.335,0.318,0.176,0.103,southwest,1.1,No
2017/10/06,18:10,0.347,0.216,0.356,0.336,0.318,0.177,0.104,south-southwest,0.8,No
2017/10/06,18:20,0.348,0.216,0.358,0.334,0.317,0.176,0.104,west-southwest,0.5,No
2017/10/06,18:30,0.346,0.216,0.356,0.336,0.318,0.176,0.103,west-southwest,0.7,No
2017/10/06,18:40,0.347,0.216,0.357,0.335,0.317,0.175,0.103,-,CALM,No
2017/10/06,18:50,0.346,0.217,0.358,0.337,0.319,0.175,0.103,-,CALM,No
2017/10/06,19:00,0.349,0.216,0.357,0.336,0.316,0.177,0.104,-,CALM,Yes
2017/10/06,19:10,0.347,0.216,0.357,0.336,0.320,0.175,0.104,-,CALM,Yes
2017/10/06,19:20,0.349,0.217,0.358,0.335,0.316,0.176,0.105,-,CALM,Yes
2017/10/06,19:30,0.347,0.217,0.358,0.337,0.320,0.176,0.104,north-northwest,0.9,Yes
2017/10/06,19:40,0.349,0.216,0.357,0.335,0.317,0.176,0.104,northwest,1.4,Yes
2017/10/06,19:50,0.346,0.217,0.358,0.338,0.320,0.176,0.104,northwest,1.6,Yes
2017/10/06,20:00,0.350,0.216,0.357,0.336,0.317,0.175,0.104,northwest,1.7,Yes
2017/10/06,20:10,0.346,0.216,0.359,0.339,0.319,0.176,0.104,north-northwest,1.9,Yes
2017/10/06,20:20,0.348,0.218,0.357,0.334,0.318,0.178,0.105,north-northwest,1.9,Yes
2017/10/06,20:30,0.348,0.218,0.360,0.338,0.320,0.177,0.104,north,2.8,Yes
2017/10/06,20:40,0.348,0.218,0.357,0.334,0.317,0.178,0.106,north,2.8,Yes
2017/10/06,20:50,0.345,0.218,0.357,0.335,0.320,0.178,0.106,north-northwest,2.2,Yes
2017/10/06,21:00,0.348,0.218,0.356,0.335,0.317,0.178,0.107,north-northwest,1.9,Yes
2017/10/06,21:10,0.346,0.218,0.358,0.335,0.320,0.177,0.107,north-northwest,2.2,Yes
2017/10/06,21:20,0.348,0.219,0.356,0.333,0.316,0.180,0.108,north,2.5,Yes
2017/10/06,21:30,0.346,0.219,0.356,0.334,0.320,0.179,0.109,northwest,1.6,Yes
2017/10/06,21:40,0.348,0.219,0.353,0.335,0.317,0.179,0.107,north,1.4,Yes
2017/10/06,21:50,0.346,0.219,0.355,0.334,0.319,0.178,0.108,north-northwest,1.1,Yes
2017/10/06,22:00,0.346,0.217,0.352,0.333,0.316,0.177,0.106,northeast,0.8,Yes
2017/10/06,22:10,0.343,0.216,0.353,0.333,0.317,0.176,0.106,north-northwest,0.5,Yes
2017/10/06,22:20,0.346,0.215,0.351,0.330,0.315,0.177,0.105,northwest,1.3,Yes
2017/10/06,22:30,0.341,0.215,0.352,0.330,0.317,0.175,0.105,northwest,1.4,Yes
2017/10/06,22:40,0.344,0.214,0.351,0.331,0.314,0.175,0.104,-,CALM,Yes
2017/10/06,22:50,0.339,0.214,0.351,0.330,0.315,0.174,0.103,southeast,0.8,Yes
2017/10/06,23:00,0.344,0.214,0.350,0.330,0.312,0.174,0.104,south-southeast,1.2,Yes
2017/10/06,23:10,0.339,0.213,0.350,0.328,0.315,0.174,0.104,south,3.3,Yes
2017/10/06,23:20,0.342,0.212,0.348,0.328,0.312,0.175,0.103,south-southwest,3.5,Yes
2017/10/06,23:30,0.339,0.212,0.347,0.328,0.313,0.173,0.104,south,3.1,Yes
2017/10/06,23:40,0.342,0.214,0.349,0.330,0.314,0.173,0.103,south-southwest,3.3,Yes
2017/10/06,23:50,0.340,0.212,0.348,0.327,0.312,0.174,0.103,south-southwest,3.7,Yes
